Regional Weather Roundup
Issued by NWS

Home | Current Version | Previous Version | Text Only | Print | Product List | Glossary On
Versions: 1 2 3 4 5 6 7 8 9 10 11 12 13 14 15 16 17 18 19 20 21 22 23 24 25 26 27 28 29 30 31 32 33 34 35 36 37 38 39 40 41 42 43 44 45 46 47 48 49 50
000
ASUS43 KDTX 211510
RWRMI
MICHIGAN HOURLY REGIONAL WEATHER ROUNDUP
NATIONAL WEATHER SERVICE DETROIT/PONTIAC MI
1100 AM EDT SAT APR 21 2018

NOTE: "FAIR" INDICATES FEW OR NO CLOUDS BELOW 12,000 FEET WITH NO
SIGNIFICANT WEATHER AND/OR OBSTRUCTION TO VISIBILITY.

MIZ047>049-052>055-059>063-066>070-074>076-081>083-211600-
SOUTHEAST LOWER MICHIGAN

CITY           SKY/WX    TMP DP  RH WIND       PRES   REMARKS
ADRIAN         FAIR      48  25  40 S6        30.48S
ALMA           FAIR      46  32  59 CALM      30.47S
ANN ARBOR      FAIR      49  25  39 E9        30.47F
BAD AXE        FAIR      52  18  26 S3        30.48F
CARO           FAIR      53  23  31 CALM      30.46F
DETROIT CITY   FAIR      48  20  32 E5        30.49F
DETROIT        CLOUDY    49  27  42 VRB5      30.49S
FLINT          FAIR      50  28  42 SW7       30.47F
GROSSE ILE     FAIR      44  30  57 S6        30.49S
HILLSDALE      FAIR      46  21  36 S9        30.45S
HOWELL         FAIR      50  26  39 SE8       30.46S

CITY           SKY/WX    TMP DP  RH WIND       PRES   REMARKS
JACKSON        FAIR      52  26  36 SE5       30.45S
LAMBERTVILLE   FAIR      51  23  33 SE6       30.47F
LANSING        FAIR      52  29  41 VRB3      30.46S
LAPEER         FAIR      51  23  33 CALM      30.47F
MASON          FAIR      52  26  36 S5        30.46S
MONROE         FAIR      46  31  55 S6        30.48S
MT. CLEMENS    CLOUDY    47  22  38 VRB6      30.47F
PONTIAC        CLOUDY    50  24  36 SE5       30.46F
PORT HOPE        N/A     39  33  79 E5        30.47S
PORT HURON     FAIR      48  14  25 S5        30.48F
TRI CITIES     FAIR      48  29  47 SW7       30.47S
MIDLAND        FAIR      47  31  53 CALM      30.46F
TROY           FAIR      49  22  34 E3        30.50S
SAGINAW HB     FAIR      50  27  40 S6        30.46F
$$
MIZ043>046-050>051-056>058-064>065-071>073-077>080-211600-
SOUTHWEST LOWER MICHIGAN

CITY           SKY/WX    TMP DP  RH WIND       PRES   REMARKS
BATTLE CREEK   FAIR      49  28  44 SW7       30.46R
BENTON HARBOR  FAIR      50  27  40 CALM      30.45F
BIG RAPIDS     FAIR      44  24  46 CALM      30.46S
COLDWATER      FAIR      50  25  37 SE5       30.45F
FREMONT        FAIR      45  21  39 CALM      30.46S
HOLLAND        FAIR      48  26  42 VRB3      30.46F
GRAND RAPIDS   CLOUDY    50  28  42 W3        30.45F
IONIA          FAIR      49  28  43 CALM      30.45S
KALAMAZOO      FAIR      49  29  46 S6        30.46S
LUDINGTON      FAIR      46  24  42 CALM      30.46S
MARSHALL       FAIR      50  25  37 SW7       30.46R
MOUNT PLEASANT FAIR      46  31  56 CALM      30.46S
MUSKEGON       CLOUDY    49  25  39 CALM      30.46F
SOUTH HAVEN    FAIR      49  22  34 W5        30.45S
$$
MIZ016>042-211600-
NORTHERN LOWER MICHIGAN

CITY           SKY/WX    TMP DP  RH WIND       PRES   REMARKS
ALPENA         FAIR      46  19  34 S5        30.46F
BEAVER ISLAND  FAIR      48  17  28 SW8       30.44F
BELLAIRE       FAIR      49  12  22 SW3       30.46S
CADILLAC       FAIR      48  19  31 S3        30.43F
CHARLEVOIX     FAIR      48  17  29 SE3       30.47S
FRANKFORT      FAIR      49  11  21 S7        30.46S
GAYLORD        FAIR      48   8  19 CALM      30.43F
GRAYLING       FAIR      44  19  36 CALM      30.44F
HARBOR SPRINGS FAIR      48  14  24 CALM      30.45S
HOUGHTON LAKE  FAIR      44  30  57 W5        30.45F
MANISTEE       FAIR      46  23  40 CALM      30.47S
OSCODA         FAIR      47  24  40 SW8       30.46F
PELLSTON       FAIR      47  21  35 CALM      30.45S
ROGERS CITY    FAIR      48  19  31 N7        30.46S
TRAVERSE CITY  FAIR      50  17  27 W5        30.44F
$$
MIZ007>008-015-211600-
EASTERN UPPER MICHIGAN

CITY           SKY/WX    TMP DP  RH WIND       PRES   REMARKS
KINROSS        FAIR      47  20  34 CALM      30.44S
MACKINAC ISLAN FAIR      46  16  29 W3        30.45R
NEWBERRY       FAIR      45  17  32 S7        30.42F
S. S. MARIE    FAIR      48  21  34 S5        30.43S
MUNISING         N/A     48  27  44 S5        30.40F
$$
MIZ004>006-011>014-085-211600-
CENTRAL UPPER MICHIGAN

CITY           SKY/WX    TMP DP  RH WIND       PRES   REMARKS
MANISTIQUE     FAIR      40  34  77 S7        30.42F
ESCANABA       FAIR      45  23  42 SE6       30.42F
MENOMINEE      FAIR      53  19  26 W5        30.43F
SAWYER-GWINN   SUNNY     46  16  29 N5        30.40F
$$
MIZ001>003-009>011-084-211600-
WESTERN UPPER MICHIGAN

CITY           SKY/WX    TMP DP  RH WIND       PRES   REMARKS
IRON MOUNTAIN  FAIR      52  19  27 CALM      30.39F
HOUGHTON       FAIR      45  21  38 SE5       30.39S
COPPER HARBOR    N/A     46  18  32 E5        30.39F
IRONWOOD       FAIR      49  19  30 CALM      30.41F
$$

ABBREVIATIONS USED IN REMARKS
   TC - TEMPERATURE IN CELSIUS
  WCI - WIND CHILL INDEX
   HX - HEAT INDEX
  VSB - VISIBILITY





USA.gov is the U.S. government's official web portal to all federal, state and local government web resources and services.